AEE503 EDDM-LOWK

Flight info

Callsign AEE503
Flight time N/A
Altitude 35000
Route ROTAX3S/26L ROTAX L603 LATLO DCT OBEDI DCT TISMA
Aircraft A320/M-SDE3FGHIRWY/LB1

Departure

Time N/A
Airport Munich Airport (EDDM)

Arrival

Time 2026-05-04 19:21
Airport Klagenfurt Airport (LOWK)
Time Latitude Longitude Altitude Speed Heading
2026-05-04 19:05 47.28733 13.57100 27897 ft 438 kts 133°
2026-05-04 19:06 47.26755 13.60463 27025 ft 431 kts 133°
2026-05-04 19:06 47.24164 13.64831 25792 ft 424 kts 133°
2026-05-04 19:06 47.22852 13.67028 25177 ft 421 kts 133°
2026-05-04 19:06 47.20928 13.70246 24293 ft 416 kts 133°
2026-05-04 19:07 47.19023 13.73412 23410 ft 412 kts 133°
2026-05-04 19:07 47.17082 13.76479 22439 ft 406 kts 135°
2026-05-04 19:07 47.15133 13.79361 21573 ft 401 kts 137°
2026-05-04 19:07 47.13145 13.82185 20749 ft 394 kts 138°
2026-05-04 19:08 47.11178 13.84940 19931 ft 388 kts 138°
2026-05-04 19:08 47.09236 13.87659 19135 ft 383 kts 138°
2026-05-04 19:08 47.07328 13.90350 18357 ft 378 kts 138°
2026-05-04 19:08 47.05456 13.93015 17449 ft 373 kts 137°
2026-05-04 19:09 47.03615 13.95657 16876 ft 369 kts 137°
2026-05-04 19:09 47.01785 13.98295 16608 ft 368 kts 137°
2026-05-04 19:09 46.99974 14.00906 16156 ft 363 kts 137°
2026-05-04 19:09 46.98179 14.03487 15670 ft 360 kts 137°
2026-05-04 19:10 46.96392 14.06048 15171 ft 359 kts 137°
2026-05-04 19:10 46.95212 14.07736 14830 ft 358 kts 137°
2026-05-04 19:10 46.92841 14.11124 14174 ft 354 kts 137°
2026-05-04 19:10 46.91108 14.13597 13670 ft 353 kts 138°
2026-05-04 19:11 46.89353 14.16099 13151 ft 350 kts 138°
2026-05-04 19:11 46.87612 14.18579 12657 ft 348 kts 138°
2026-05-04 19:11 46.85885 14.21039 12165 ft 346 kts 138°
2026-05-04 19:11 46.84167 14.23482 11658 ft 343 kts 138°
2026-05-04 19:12 46.82459 14.25907 11192 ft 342 kts 138°
2026-05-04 19:12 46.79075 14.30706 10518 ft 331 kts 138°
2026-05-04 19:12 46.77472 14.32980 10395 ft 320 kts 138°
2026-05-04 19:13 46.75903 14.35203 10270 ft 309 kts 139°
2026-05-04 19:13 46.74380 14.37357 10137 ft 300 kts 139°
2026-05-04 19:13 46.72898 14.39452 9978 ft 294 kts 138°
2026-05-04 19:13 46.71582 14.41764 9518 ft 305 kts 124°
2026-05-04 19:14 46.70739 14.44616 9212 ft 306 kts 108°
2026-05-04 19:14 46.70168 14.47585 8850 ft 305 kts 108°
2026-05-04 19:14 46.69568 14.50619 8059 ft 314 kts 108°
2026-05-04 19:14 46.68969 14.53604 7816 ft 299 kts 108°
2026-05-04 19:15 46.68400 14.56434 7589 ft 283 kts 109°
2026-05-04 19:15 46.67863 14.59115 7368 ft 270 kts 108°
2026-05-04 19:15 46.67154 14.61524 7066 ft 256 kts 132°
2026-05-04 19:15 46.65788 14.62994 6752 ft 239 kts 166°
2026-05-04 19:16 46.64207 14.63160 6447 ft 223 kts 196°
2026-05-04 19:16 46.62745 14.62556 6124 ft 216 kts 199°
2026-05-04 19:16 46.61319 14.61945 5793 ft 211 kts 199°
2026-05-04 19:16 46.60019 14.61085 5470 ft 202 kts 225°
2026-05-04 19:17 46.59349 14.59370 5162 ft 196 kts 260°
2026-05-04 19:17 46.59531 14.57425 4852 ft 197 kts 287°
2026-05-04 19:17 46.59942 14.55606 4518 ft 187 kts 282°
2026-05-04 19:17 46.60276 14.53826 4168 ft 178 kts 281°
2026-05-04 19:18 46.60568 14.52165 3829 ft 161 kts 282°
2026-05-04 19:18 46.60856 14.50637 3592 ft 154 kts 283°
2026-05-04 19:18 46.61148 14.49152 3382 ft 151 kts 283°
2026-05-04 19:18 46.61440 14.47697 3167 ft 149 kts 283°
2026-05-04 19:19 46.61729 14.46248 2971 ft 148 kts 283°
2026-05-04 19:19 46.62019 14.44810 2772 ft 148 kts 283°
2026-05-04 19:19 46.62308 14.43384 2584 ft 147 kts 283°
2026-05-04 19:19 46.62597 14.41959 2394 ft 147 kts 284°
2026-05-04 19:20 46.62884 14.40545 2200 ft 148 kts 284°
2026-05-04 19:20 46.63177 14.39112 2012 ft 149 kts 285°
2026-05-04 19:20 46.63466 14.37664 1792 ft 149 kts 285°
2026-05-04 19:20 46.63760 14.36215 1618 ft 149 kts 285°
2026-05-04 19:21 46.64048 14.34788 1457 ft 138 kts 285°
2026-05-04 19:21 46.64255 14.33761 1468 ft 65 kts 286°
2026-05-04 19:21 46.64372 14.33181 1472 ft 56 kts 286°
2026-05-04 19:21 46.64455 14.32889 1470 ft 22 kts 325°
2026-05-04 19:22 46.64579 14.32801 1469 ft 18 kts 332°
2026-05-04 19:22 46.64672 14.32709 1471 ft 14 kts 320°